VLG37CO DAAG-LEBL

Flight info

Callsign VLG37CO
Flight time N/A
Altitude 34000
Route SADAF1C SADAF DCT SURIB DCT INSUB DCT RONDU DCT IZA DCT OKITI DCT GODOX DCT EPAMA DCT MARTA MART4N
Aircraft A320/M-SDE3FGHIRWY/LB1

Departure

Time 2026-05-08 22:09
Airport Houari Boumediene Airport (DAAG)

Arrival

Time N/A
Airport Josep Tarradellas Barcelona-El Prat Airport (LEBL)
Time Latitude Longitude Altitude Speed Heading
2026-05-08 21:49 36.69678 3.20596 73 ft 0 kts 20°
2026-05-08 21:54 36.69675 3.20594 73 ft 1 kts 20°
2026-05-08 21:54 36.69673 3.20593 73 ft 0 kts 20°
2026-05-08 21:55 36.69667 3.20591 62 ft 1 kts 20°
2026-05-08 21:55 36.69661 3.20588 65 ft 1 kts 20°
2026-05-08 21:55 36.69655 3.20585 66 ft 1 kts 20°
2026-05-08 21:56 36.69640 3.20578 65 ft 1 kts 20°
2026-05-08 21:56 36.69633 3.20575 65 ft 1 kts 20°
2026-05-08 21:56 36.69625 3.20571 66 ft 1 kts 20°
2026-05-08 21:56 36.69616 3.20567 63 ft 1 kts 20°
2026-05-08 21:57 36.69606 3.20562 68 ft 1 kts 20°
2026-05-08 21:57 36.69597 3.20558 67 ft 1 kts 20°
2026-05-08 21:57 36.69587 3.20553 63 ft 1 kts 20°
2026-05-08 21:57 36.69577 3.20548 63 ft 2 kts 20°
2026-05-08 21:58 36.69565 3.20543 65 ft 4 kts 20°
2026-05-08 21:58 36.69532 3.20528 64 ft 7 kts 20°
2026-05-08 21:58 36.69494 3.20509 66 ft 0 kts 20°
2026-05-08 21:59 36.69507 3.20515 69 ft 5 kts 19°
2026-05-08 21:59 36.69553 3.20508 71 ft 8 kts 314°
2026-05-08 21:59 36.69565 3.20471 73 ft 0 kts 276°
2026-05-08 22:03 36.69565 3.20463 63 ft 4 kts 276°
2026-05-08 22:04 36.69570 3.20396 71 ft 12 kts 267°
2026-05-08 22:04 36.69517 3.20301 70 ft 18 kts 196°
2026-05-08 22:04 36.69371 3.20294 70 ft 23 kts 183°
2026-05-08 22:04 36.69302 3.20172 74 ft 20 kts 263°
2026-05-08 22:05 36.69302 3.19977 73 ft 24 kts 273°
2026-05-08 22:05 36.69311 3.19751 72 ft 28 kts 272°
2026-05-08 22:05 36.69319 3.19495 68 ft 31 kts 272°
2026-05-08 22:05 36.69329 3.19243 71 ft 29 kts 273°
2026-05-08 22:06 36.69336 3.18976 70 ft 34 kts 272°
2026-05-08 22:06 36.69336 3.18666 70 ft 39 kts 270°
2026-05-08 22:06 36.69344 3.18315 69 ft 42 kts 271°
2026-05-08 22:06 36.69353 3.17946 67 ft 43 kts 271°
2026-05-08 22:07 36.69363 3.17568 59 ft 44 kts 272°
2026-05-08 22:07 36.69371 3.17204 66 ft 35 kts 272°
2026-05-08 22:07 36.69307 3.17102 66 ft 7 kts 182°
2026-05-08 22:07 36.69302 3.17101 59 ft 2 kts 182°
2026-05-08 22:08 36.69277 3.17100 61 ft 4 kts 182°
2026-05-08 22:08 36.69254 3.17099 67 ft 3 kts 182°
2026-05-08 22:08 36.69228 3.17112 64 ft 6 kts 149°
2026-05-08 22:08 36.69203 3.17172 61 ft 11 kts 101°
2026-05-08 22:09 36.69197 3.17409 67 ft 61 kts 91°
2026-05-08 22:09 36.69179 3.18242 61 ft 127 kts 91°
2026-05-08 22:09 36.69156 3.19552 207 ft 165 kts 89°
2026-05-08 22:09 36.69203 3.20967 892 ft 165 kts 81°
2026-05-08 22:10 36.69497 3.22378 1556 ft 174 kts 71°
2026-05-08 22:10 36.70031 3.23761 2125 ft 186 kts 58°
2026-05-08 22:10 36.70936 3.25037 2500 ft 209 kts 40°
2026-05-08 22:10 36.72270 3.25960 2902 ft 234 kts 20°
2026-05-08 22:11 36.73963 3.26280 3363 ft 261 kts 358°
2026-05-08 22:11 36.75768 3.25715 4101 ft 275 kts 334°
2026-05-08 22:11 36.77301 3.24270 4959 ft 281 kts 309°
2026-05-08 22:11 36.78341 3.22207 5891 ft 282 kts 297°
2026-05-08 22:12 36.79272 3.20051 6841 ft 284 kts 296°
2026-05-08 22:12 36.80193 3.17902 7760 ft 285 kts 295°
2026-05-08 22:12 36.81129 3.15711 8693 ft 287 kts 294°
2026-05-08 22:12 36.82072 3.13507 9641 ft 289 kts 293°
2026-05-08 22:13 36.83114 3.11345 10502 ft 295 kts 302°
2026-05-08 22:13 36.84556 3.09471 11330 ft 305 kts 316°
2026-05-08 22:13 36.86354 3.07958 11934 ft 322 kts 322°
2026-05-08 22:13 36.88314 3.06412 12273 ft 342 kts 322°
2026-05-08 22:14 36.90358 3.04809 12920 ft 351 kts 323°
2026-05-08 22:14 36.92417 3.03196 13616 ft 357 kts 323°
2026-05-08 22:14 36.94530 3.01538 14314 ft 361 kts 323°
2026-05-08 22:14 36.96662 2.99865 15057 ft 362 kts 323°
2026-05-08 22:15 36.98800 2.98186 15792 ft 364 kts 323°
2026-05-08 22:15 37.00916 2.96521 16130 ft 356 kts 323°
2026-05-08 22:15 37.03000 2.94870 16603 ft 365 kts 323°
2026-05-08 22:15 37.05149 2.93166 16998 ft 358 kts 323°
2026-05-08 22:16 37.07278 2.91479 17393 ft 367 kts 323°
2026-05-08 22:16 37.09448 2.89757 17889 ft 366 kts 323°
2026-05-08 22:16 37.11523 2.88117 18065 ft 348 kts 323°
2026-05-08 22:16 37.13515 2.86548 18205 ft 329 kts 323°
2026-05-08 22:17 37.15404 2.85058 18343 ft 313 kts 322°
2026-05-08 22:17 37.17204 2.83634 18495 ft 302 kts 322°
2026-05-08 22:17 37.18950 2.82246 18619 ft 290 kts 322°
2026-05-08 22:17 37.20611 2.80928 18783 ft 280 kts 321°
2026-05-08 22:18 37.22228 2.79639 18916 ft 270 kts 321°
2026-05-08 22:18 37.23755 2.78424 19045 ft 256 kts 320°
2026-05-08 22:18 37.25210 2.77266 18953 ft 247 kts 320°
2026-05-08 22:18 37.26600 2.75840 17268 ft 281 kts 297°
2026-05-08 22:19 37.27193 2.73262 14868 ft 342 kts 265°
2026-05-08 22:19 37.26579 2.70205 13122 ft 377 kts 247°
2026-05-08 22:19 37.25429 2.67308 12741 ft 366 kts 237°
2026-05-08 22:19 37.23835 2.64781 12275 ft 369 kts 226°
2026-05-08 22:20 37.21898 2.62775 11748 ft 362 kts 214°
2026-05-08 22:20 37.19770 2.61191 11240 ft 355 kts 207°
2026-05-08 22:20 37.17547 2.60073 10977 ft 343 kts 196°
2026-05-08 22:20 37.15259 2.59741 11199 ft 319 kts 180°
2026-05-08 22:21 37.13169 2.60196 11460 ft 297 kts 167°
2026-05-08 22:21 37.11298 2.61241 11377 ft 292 kts 155°
2026-05-08 22:21 37.09535 2.62498 10930 ft 293 kts 154°
2026-05-08 22:21 37.07769 2.63809 10412 ft 298 kts 153°
2026-05-08 22:22 37.06003 2.65189 9914 ft 301 kts 150°
2026-05-08 22:22 37.04309 2.66731 9527 ft 300 kts 146°
2026-05-08 22:22 37.02753 2.68406 9153 ft 298 kts 141°
2026-05-08 22:22 37.01303 2.70247 8789 ft 296 kts 136°
2026-05-08 22:23 36.99855 2.72011 8623 ft 281 kts 146°
2026-05-08 22:23 36.98358 2.73469 8534 ft 267 kts 148°
2026-05-08 22:23 36.96818 2.74805 8100 ft 267 kts 150°
2026-05-08 22:23 36.95263 2.75987 7914 ft 256 kts 155°
2026-05-08 22:24 36.93666 2.76852 7733 ft 245 kts 166°
2026-05-08 22:24 36.92043 2.77302 7569 ft 233 kts 172°
2026-05-08 22:24 36.90547 2.77647 7662 ft 211 kts 170°
2026-05-08 22:24 36.89176 2.78282 7329 ft 214 kts 152°
2026-05-08 22:25 36.87954 2.79423 6767 ft 229 kts 138°
2026-05-08 22:25 36.86857 2.80886 6451 ft 228 kts 134°
2026-05-08 22:25 36.85802 2.82280 6406 ft 213 kts 139°
2026-05-08 22:25 36.84699 2.83476 6226 ft 207 kts 143°
2026-05-08 22:26 36.83568 2.84539 6018 ft 200 kts 147°
2026-05-08 22:26 36.82418 2.85483 5797 ft 195 kts 149°
2026-05-08 22:26 36.81283 2.86372 5553 ft 192 kts 149°
2026-05-08 22:26 36.80170 2.87226 5226 ft 193 kts 149°
2026-05-08 22:27 36.78998 2.88184 4763 ft 204 kts 143°
2026-05-08 22:27 36.77938 2.89278 4708 ft 193 kts 136°
2026-05-08 22:27 36.76995 2.90446 4490 ft 190 kts 134°
2026-05-08 22:27 36.76112 2.91666 4242 ft 189 kts 129°
2026-05-08 22:28 36.75279 2.92927 3927 ft 189 kts 129°
2026-05-08 22:28 36.74405 2.94247 3673 ft 207 kts 128°
2026-05-08 22:28 36.73479 2.95651 3338 ft 215 kts 128°
2026-05-08 22:28 36.72518 2.97063 3096 ft 211 kts 129°
2026-05-08 22:29 36.71549 2.98448 2993 ft 228 kts 129°
2026-05-08 22:29 36.70539 2.99923 2869 ft 211 kts 128°
2026-05-08 22:29 36.69817 3.01380 2707 ft 189 kts 114°
2026-05-08 22:29 36.69457 3.02903 2391 ft 180 kts 97°
2026-05-08 22:30 36.69481 3.04437 2049 ft 175 kts 80°
2026-05-08 22:30 36.69586 3.05931 1703 ft 170 kts 91°
2026-05-08 22:30 36.69442 3.07388 1580 ft 170 kts 97°
2026-05-08 22:30 36.69405 3.08825 1236 ft 165 kts 89°
2026-05-08 22:31 36.69401 3.10208 1041 ft 154 kts 96°
2026-05-08 22:31 36.69360 3.11453 923 ft 135 kts 92°
2026-05-08 22:31 36.69329 3.12596 704 ft 132 kts 94°
2026-05-08 22:31 36.69251 3.13799 558 ft 142 kts 90°
2026-05-08 22:32 36.69262 3.14956 402 ft 126 kts 90°
2026-05-08 22:32 36.69223 3.16014 178 ft 119 kts 91°
2026-05-08 22:32 36.69214 3.16584 60 ft 0 kts 92°